x

Port Washington, Wi (pwaw3) Weather Station

12:40am - Wed 1st Jun 2016 All times are CDT. -5 hours from GMT.

  • Wind
  • Air Temp 59°f
  • Sea Pressure 1015.2mb
  • Port Washington, Wi
  • Port Washington, Wi

More Historic Weather Station data

Upgrade to MSW Pro to gain access to the past 30 days of data for over 8000 Wavebouys and Weather Stations around the globe.

Join Pro

Comparision Forecast

View Surf forecast
   
Wed 06/01 12:40am  -  2 mph 1015.2mb 59f
12:30am 1 3 mph 1015.2mb 59f
12:20am 1 5 mph 1015.2mb 60f
12:10am  -  2 mph 1015.2mb 59f
12:00am 1 3 mph 1015.2mb 59f
Tue 05/31 11:40pm 3 8 mph 1015.6mb 59f
11:30pm 5 7 mph 1015.6mb 59f
11:20pm 5 7 mph 1015.6mb 59f
11:10pm 5 7 mph 1015.9mb 58f
11:00pm 2
mph
1015.6mb 57f
10:40pm  -  2 mph 1015.6mb 57f
10:30pm  -  5 mph 1015.6mb 56f
10:20pm 2 5 mph 1015.6mb 55f
10:10pm 5
mph
1015.6mb 55f
10:00pm 3 6 mph 1015.6mb 55f
9:40pm 3 5 mph 1015.6mb 55f
9:30pm 2 5 mph 1015.6mb 55f
9:20pm 2 3 mph 1015.6mb 55f
9:10pm 2 3 mph 1015.6mb 55f
9:00pm 1 5 mph 1015.6mb 55f
8:40pm 5 7 mph 1015.6mb 55f
8:30pm 3 8 mph 1015.6mb 55f
8:20pm 6 8 mph 1015.2mb 55f
8:10pm 5 6 mph 1015.6mb 55f
8:00pm 3 5 mph 1015.6mb 55f
7:40pm 3 5 mph 1015.9mb 54f
7:30pm 2
mph
1016.3mb 55f
7:20pm 1 3 mph 1016.6mb 54f
7:10pm 3
mph
1016.3mb 54f
7:00pm 2 3 mph 1016.6mb 55f
5:40pm 5 6 mph 1016.6mb 53f
5:30pm 3 6 mph 1016.6mb 53f
5:20pm 5 7 mph 1016.9mb 53f
5:10pm 6 10 mph 1016.9mb 53f
5:00pm 9 11 mph 1016.6mb 53f
4:40pm 5 9 mph 1016.6mb 57f
4:30pm 9 10 mph 1016.6mb 57f
4:20pm 5 9 mph 1016.6mb 57f
4:10pm 8 9 mph 1016.6mb 56f
4:00pm 7 8 mph 1016.9mb 55f
3:40pm 7 9 mph 1017.3mb 55f
3:30pm 7 9 mph 1017.3mb 56f
3:20pm 3 6 mph 1017.6mb 60f
3:10pm 2 6 mph 1017.9mb 60f
3:00pm 2 3 mph 1017.9mb 58f
2:40pm 2 5 mph 1017.9mb 59f
2:30pm 1 7 mph 1017.9mb 60f
2:20pm 3 17 mph 1018.3mb 55f
2:10pm 9 11 mph 1017.3mb 54f
2:00pm 9 11 mph 1017.3mb 55f
1:40pm 9 13 mph 1017.6mb 55f
1:30pm 10 13 mph 1017.6mb 55f
1:20pm 9 13 mph 1017.3mb 55f
1:10pm 9 11 mph 1017.6mb 54f
1:00pm 7 10 mph 1017.6mb 54f
12:40pm 8 10 mph 1017.6mb 54f
12:30pm 7 10 mph 1017.6mb 55f
12:20pm 8 9 mph 1017.9mb 54f
12:10pm 8 10 mph 1017.9mb 54f
12:00pm 8 10 mph 1017.9mb 56f
11:40am 6 8 mph 1017.6mb 56f
11:30am 7 9 mph 1017.6mb 55f
11:20am 7 8 mph 1017.9mb 55f
11:10am 5 8 mph 1017.9mb 55f
11:00am 6 9 mph 1017.9mb 56f
10:40am 7 9 mph 1017.9mb 55f
10:30am 7 10 mph 1017.9mb 55f
10:20am 8 10 mph 1017.9mb 55f
10:10am 7 9 mph 1017.9mb 55f
10:00am 8 9 mph 1017.9mb 56f
9:40am 10 13 mph 1018.3mb 55f
9:30am 10 16 mph 1018.3mb 55f
9:20am 10 15 mph 1018.3mb 55f
9:10am 10 14 mph 1018.3mb 54f
9:00am 11 14 mph 1018.3mb 54f
8:40am 9 13 mph 1018.3mb 54f
8:30am 8 10 mph 1018.3mb 53f
8:20am 3 8 mph 1018.3mb 53f
8:10am 6 13 mph 1018.3mb 55f
8:00am 10 15 mph 1018.3mb 57f
7:40am 8 14 mph 1018.3mb 54f
7:30am 13 14 mph 1017.9mb 53f
7:20am 9 14 mph 1017.9mb 52f
7:10am 11 14 mph 1017.9mb 52f
7:00am 11 17 mph 1017.9mb 52f
6:40am 7 11 mph 1017.6mb 52f
6:30am 10 15 mph 1017.6mb 53f
6:20am 10 16 mph 1017.6mb 61f
6:10am 5 8 mph 1017.3mb 65f
6:00am 5 8 mph 1017.6mb 66f
5:40am 8 10 mph 1017.6mb 66f
5:30am 6 8 mph 1017.6mb 65f
5:20am 6 11 mph 1017.6mb 66f
5:10am 7 11 mph 1017.6mb 65f
5:00am 8 17 mph 1017.3mb 65f
4:40am 3 5 mph 1016.9mb 62f
4:30am 2 6 mph 1016.6mb 60f
4:20am  -  2 mph 1016.6mb 57f
4:10am 2
mph
1015.9mb 58f
4:00am  -  1 mph 1016.3mb 60f
3:40am 3 5 mph 1016.6mb 60f
3:30am 3 5 mph 1016.6mb 59f
3:20am 3 5 mph 1016.6mb 59f
3:10am 5
mph
1016.6mb 59f
3:00am 3
mph
1016.6mb 58f
2:40am  -  mph 1016.6mb 58f
2:30am  -  1 mph 1016.6mb 59f
2:20am 1 2 mph 1016.6mb 59f
2:10am 2 5 mph 1016.6mb 60f
2:00am 2
mph
1016.6mb 59f
1:40am 2 3 mph 1016.6mb 61f
1:30am 3 5 mph 1016.6mb 62f
1:20am 3 5 mph 1016.6mb 63f
1:10am 2 5 mph 1016.6mb 64f
1:00am 5 6 mph 1016.6mb 63f
12:50am 5 6 mph 1016.6mb 62f
12:40am 3 5 mph 1016.6mb 62f
12:30am 3
mph
1016.6mb 61f
12:20am 2 3 mph 1016.6mb 61f
12:10am 3
mph
1016.6mb 60f
12:00am 1 2 mph 1016.6mb 59f
Mon 05/30 11:50pm 1 2 mph 1016.6mb 58f
11:40pm  -  mph 1016.6mb 57f
11:30pm  -  1 mph 1016.6mb 58f
11:20pm  -  1 mph 1016.6mb 58f
11:10pm  -  mph 1016.6mb 59f
11:00pm  -  mph 1016.6mb 59f
10:50pm  -  mph 1016.6mb 59f
10:40pm  -  mph 1016.6mb 59f
10:30pm  -  2 mph 1016.6mb 60f
10:20pm 2 3 mph 1016.6mb 61f
10:10pm  -  1 mph 1016.6mb 62f
10:00pm  -  5 mph 1016.6mb 62f
9:50pm 3 5 mph 1016.6mb 61f
9:40pm 3 5 mph 1016.6mb 61f
9:30pm 3 5 mph 1016.9mb 60f
9:20pm 3 5 mph 1016.6mb 60f
9:10pm  -  1 mph 1016.6mb 60f
9:00pm 1 3 mph 1016.3mb 61f
8:50pm 2 6 mph 1016.3mb 62f
8:40pm 5 6 mph 1016.3mb 62f
8:30pm 3 6 mph 1016.3mb 62f
8:20pm 3 6 mph 1016.3mb 63f
8:10pm 3 5 mph 1016.3mb 63f
8:00pm 1 2 mph 1016.3mb 63f
7:50pm  -  1 mph 1016.3mb 63f
7:40pm 1
mph
1015.9mb 63f
7:30pm  -  5 mph 1015.9mb 64f
7:20pm 3 7 mph 1016.3mb 65f
7:10pm 3 6 mph 1016.3mb 65f
7:00pm 5 6 mph 1015.9mb 66f
6:50pm 3 6 mph 1015.9mb 66f
6:40pm 5 7 mph 1015.9mb 67f
6:30pm 5 7 mph 1016.3mb 68f
6:20pm 3 8 mph 1016.3mb 68f
6:10pm 2 7 mph 1016.3mb 68f
6:00pm 3 6 mph 1016.3mb 67f
5:50pm 5 6 mph 1016.3mb 66f
5:40pm 3 5 mph 1016.3mb 66f
5:30pm 2 5 mph 1016.3mb 67f
5:20pm 2 6 mph 1016.3mb 66f
5:10pm 5 6 mph 1015.9mb 67f
5:00pm 1 5 mph 1015.9mb 66f
4:50pm 3 7 mph 1016.3mb 67f
4:40pm 5 9 mph 1016.3mb 68f
4:30pm 6 7 mph 1016.3mb 69f
4:20pm 3 6 mph 1016.3mb 68f
4:10pm 6 8 mph 1016.3mb 69f
4:00pm 6 8 mph 1016.3mb 69f
3:50pm 3 6 mph 1016.3mb 68f
3:40pm 2 5 mph 1016.3mb 68f
3:30pm 3 6 mph 1015.9mb 68f
3:20pm  -  3 mph 1015.9mb 68f
3:10pm 3
mph
1016.3mb 68f
3:00pm 2 5 mph 1016.3mb 67f
2:50pm 3
mph
1016.3mb 67f
2:40pm 3 5 mph 1016.6mb 68f
2:30pm 2 3 mph 1016.6mb 69f
2:20pm 3 6 mph 1016.6mb 69f
2:10pm 5 6 mph 1016.6mb 72f
2:00pm 3 7 mph 1016.6mb 71f
1:50pm 3 7 mph 1016.9mb 70f
1:40pm 5 7 mph 1016.9mb 71f
1:30pm 3 6 mph 1016.9mb 71f
1:20pm 2 7 mph 1016.9mb 69f
1:10pm 5 6 mph 1017.3mb 67f
1:00pm 3 6 mph 1017.3mb 67f
12:50pm 2 6 mph 1017.3mb 67f
12:40pm 6 7 mph 1017.3mb 67f
12:30pm 3
mph
1017.3mb 65f
12:20pm 3
mph
1017.3mb 67f
12:10pm  -  3 mph 1017.3mb 69f
12:00pm 2 3 mph 1017.3mb 68f
11:50am 1 3 mph 1017.3mb 68f
11:40am 2 3 mph 1017.3mb 69f
11:30am 1 8 mph 1017.3mb 65f
11:20am 5 8 mph 1017.3mb 65f
11:10am 3 5 mph 1017.3mb 66f
11:00am 1 10 mph 1017.3mb 68f
10:50am 5 8 mph 1017.3mb 67f
10:40am 8 9 mph 1016.9mb 70f
10:30am 5 7 mph 1016.9mb 71f
10:20am 6 7 mph 1016.9mb 70f
10:10am 3 7 mph 1016.9mb 67f
10:00am 6 7 mph 1016.9mb 67f
9:50am 5 6 mph 1016.9mb 68f
9:40am 3 7 mph 1016.9mb 67f
9:30am 5 29 mph 1016.9mb 68f
9:20am 5
mph
1016.9mb 65f
9:10am 3 5 mph 1016.9mb 67f
9:00am 3 8 mph 1016.9mb 76f
8:50am 5 7 mph 1016.9mb 76f
8:40am 3 8 mph 1016.9mb 75f
8:30am 7 9 mph 1016.9mb 75f
8:20am 6 9 mph 1016.9mb 73f
8:10am 6 8 mph 1016.9mb 73f
8:00am 7 10 mph 1016.9mb 72f
7:50am 6 10 mph 1016.9mb 71f
7:40am 7 9 mph 1016.9mb 71f
7:30am 5 9 mph 1016.6mb 70f
7:20am 7 10 mph 1016.6mb 69f
7:10am 3 8 mph 1016.9mb 69f
7:00am 6 9 mph 1016.9mb 68f
6:50am 3 7 mph 1016.9mb 68f
6:40am 5 8 mph 1016.9mb 67f
6:30am 7 9 mph 1016.6mb 66f
6:20am 5 9 mph 1016.6mb 65f
6:10am 7 8 mph 1016.3mb 65f
6:00am 6 9 mph 1016.3mb 65f
5:50am 7 9 mph 1016.3mb 64f
5:40am 6 8 mph 1016.3mb 64f
5:30am 5 8 mph 1015.9mb 64f
5:20am 6 10 mph 1015.9mb 64f
5:10am 7 9 mph 1015.9mb 64f
5:00am 6 9 mph 1015.6mb 64f
4:50am 7 9 mph 1015.6mb 64f
4:40am 7 9 mph 1015.6mb 64f
4:30am 6 8 mph 1015.6mb 64f
4:20am 5 8 mph 1015.6mb 64f
4:10am 6 8 mph 1015.6mb 64f
4:00am 6 8 mph 1015.6mb 64f
3:50am 5 8 mph 1015.6mb 64f
3:40am 6 10 mph 1015.6mb 65f
3:30am 6 8 mph 1015.6mb 64f
3:20am 5 7 mph 1015.6mb 65f
3:10am 5 7 mph 1015.6mb 65f
3:00am 7 9 mph 1015.6mb 65f
2:50am 6 8 mph 1015.6mb 65f
2:40am 6 8 mph 1015.6mb 66f
2:30am 6 8 mph 1015.6mb 66f
2:20am 5 7 mph 1015.9mb 66f
2:10am 5 7 mph 1015.9mb 66f
2:00am 5 7 mph 1015.9mb 66f
1:50am 5 6 mph 1015.9mb 66f
1:40am 3 6 mph 1015.9mb 66f
1:30am 5 7 mph 1015.9mb 66f
1:20am 6 8 mph 1015.6mb 67f
1:10am 3 7 mph 1015.6mb 67f
1:00am 5 7 mph 1015.6mb 67f
12:50am 5 7 mph 1015.6mb 68f
12:40am 3 7 mph 1015.6mb 68f
12:30am 5 8 mph 1015.6mb 68f
12:20am 3 8 mph 1015.6mb 68f
12:10am 5 7 mph 1015.6mb 68f
12:00am 6 8 mph 1015.2mb 68f
Sun 05/29 11:50pm 5 6 mph 1015.2mb 68f
11:40pm 5 6 mph 1015.2mb 68f
11:30pm 3 6 mph 1015.2mb 68f
11:20pm 5 7 mph 1015.2mb 69f
11:10pm 6 8 mph 1015.2mb 69f
11:00pm 6 8 mph 1014.9mb 69f
10:50pm 5 8 mph 1015.2mb 69f
10:40pm 5 7 mph 1014.9mb 70f
10:30pm 3 7 mph 1014.9mb 70f
10:20pm 5 7 mph 1014.9mb 70f
10:10pm 3 6 mph 1014.9mb 71f
10:00pm 3 7 mph 1014.9mb 71f
9:50pm 6 9 mph 1014.9mb 71f
9:40pm 6 8 mph 1014.6mb 72f
9:30pm 6 9 mph 1014.6mb 72f
9:20pm 6 9 mph 1014.6mb 72f
9:10pm 6 8 mph 1014.2mb 73f
9:00pm 5 8 mph 1014.2mb 73f
8:50pm 5 7 mph 1014.2mb 73f
8:40pm 3 6 mph 1014.2mb 74f
8:30pm 3 8 mph 1013.9mb 74f
8:20pm 5 9 mph 1013.9mb 75f
8:10pm 7 9 mph 1014.2mb 76f
8:00pm 5 9 mph 1014.2mb 77f
7:50pm 5 11 mph 1013.9mb 78f
7:40pm 6 11 mph 1013.9mb 78f
7:30pm 7 21 mph 1013.5mb 78f
7:20pm 7 17 mph 1013.5mb 79f
7:10pm 10 14 mph 1013.5mb 79f
7:00pm 9 17 mph 1013.5mb 79f
6:50pm 9 16 mph 1013.5mb 78f
6:40pm 13 18 mph 1013.9mb 79f
6:30pm 7 17 mph 1013.5mb 79f
6:20pm 10 22 mph 1013.9mb 79f
6:10pm 14 21 mph 1013.9mb 80f
6:00pm 9 16 mph 1013.5mb 80f
5:50pm 9 21 mph 1013.5mb 79f
5:40pm 10 18 mph 1013.5mb 79f
5:30pm 11 23 mph 1013.9mb 80f
5:20pm 8 20 mph 1013.9mb 80f
5:10pm 14 24 mph 1013.5mb 80f
5:00pm 10 23 mph 1013.5mb 80f
4:50pm 13 20 mph 1013.5mb 80f
4:40pm 14 20 mph 1013.5mb 80f
4:30pm 16 23 mph 1013.5mb 80f
4:20pm 11 25 mph 1013.5mb 80f
4:10pm 11 25 mph 1013.5mb 80f
4:00pm 13 22 mph 1013.5mb 80f
3:50pm 13 24 mph 1013.9mb 80f
3:40pm 13 23 mph 1013.9mb 79f
3:30pm 14 24 mph 1013.9mb 80f
3:20pm 16 25 mph 1013.9mb 79f
3:10pm 14 22 mph 1013.9mb 79f
3:00pm 13 24 mph 1014.2mb 79f
2:50pm 14 22 mph 1013.9mb 79f
2:40pm 17 25 mph 1014.2mb 78f
2:30pm 10 23 mph 1014.2mb 79f
2:20pm 14 29 mph 1013.9mb 78f
2:10pm 11 24 mph 1014.2mb 79f
2:00pm 13 24 mph 1014.2mb 78f
1:50pm 14 22 mph 1014.2mb 78f
1:40pm 11 18 mph 1014.2mb 78f
1:30pm 10 18 mph 1014.2mb 77f
1:20pm 14 22 mph 1014.2mb 76f
1:10pm 13 21 mph 1014.2mb 76f
1:00pm 13 26 mph 1014.2mb 76f
12:50pm 13 20 mph 1014.2mb 75f
12:40pm 15 21 mph 1014.2mb 75f
12:30pm 15 23 mph 1014.2mb 74f
12:20pm 10 18 mph 1014.6mb 75f
12:10pm 10 21 mph 1014.2mb 75f
12:00pm 11 21 mph 1014.6mb 74f
11:50am 11 24 mph 1014.6mb 73f
11:40am 14 21 mph 1014.6mb 73f
11:30am 11 25 mph 1014.6mb 74f
11:20am 11 24 mph 1014.6mb 74f
11:10am 9 18 mph 1014.6mb 73f
11:00am 13 23 mph 1014.6mb 73f
10:50am 15 24 mph 1014.2mb 74f
10:40am 11 21 mph 1014.2mb 73f
10:30am 16 23 mph 1014.2mb 73f
10:20am 14 21 mph 1014.2mb 73f
10:10am 9 16 mph 1014.2mb 72f
10:00am 9 24 mph 1013.9mb 72f
9:50am 11 20 mph 1013.9mb 73f
9:40am 13 21 mph 1013.9mb 74f
9:30am 9 16 mph 1013.9mb 67f
9:20am 10 13 mph 1013.9mb 60f
9:10am 9 13 mph 1014.2mb 58f
9:00am 9 13 mph 1014.2mb 57f
8:50am 8 13 mph 1014.2mb 57f
8:40am 8 11 mph 1014.2mb 58f
8:30am 7 11 mph 1013.9mb 57f
8:20am 9 13 mph 1013.9mb 57f
8:10am 8 11 mph 1013.9mb 56f
8:00am 8 11 mph 1013.9mb 55f
7:50am 9 11 mph 1014.2mb 55f
7:40am 8 10 mph 1014.2mb 54f
7:30am 8 10 mph 1014.2mb 53f
7:20am 7 10 mph 1014.2mb 53f
7:10am 8 10 mph 1014.2mb 53f
7:00am 8 9 mph 1014.2mb 53f
6:50am 5 8 mph 1014.2mb 52f
6:40am 5 7 mph 1014.2mb 52f
6:30am 5 6 mph 1014.2mb 52f
6:20am 5 6 mph 1014.2mb 51f
6:10am 1 3 mph 1013.9mb 51f
6:00am 3 5 mph 1013.9mb 51f
5:50am  -  2 mph 1013.9mb 51f
5:40am  -  1 mph 1013.9mb 53f
5:30am  -  1 mph 1013.5mb 52f
5:20am 1 7 mph 1013.5mb 51f
5:10am 6 9 mph 1013.5mb 51f
5:00am 8 10 mph 1013.5mb 51f
4:50am 6 8 mph 1013.2mb 51f
4:40am 3 6 mph 1013.2mb 51f
4:30am  -  1 mph 1013.2mb 52f
4:20am  -  2 mph 1013.2mb 52f
4:10am 2 6 mph 1013.2mb 51f
4:00am 5 6 mph 1013.2mb 53f
3:50am  -  1 mph 1013.2mb 54f
3:40am 1 2 mph 1013.2mb 55f
3:30am 3 10 mph 1013.2mb 53f
3:20am 6 8 mph 1013.2mb 52f
3:10am 7 9 mph 1013.2mb 52f
3:00am  -  5 mph 1012.9mb 56f
2:50am  -  9 mph 1012.9mb 56f
2:40am 7 10 mph 1013.2mb 54f
2:30am 6 7 mph 1012.9mb 54f
2:20am 6 9 mph 1012.9mb 54f
2:10am 7 11 mph 1012.9mb 54f
2:00am 8 10 mph 1012.9mb 56f
1:50am 7 9 mph 1013.2mb 56f
1:40am 6 9 mph 1012.9mb 58f
1:30am 3 8 mph 1013.2mb 58f
1:20am 7 8 mph 1013.2mb 56f
1:10am 8 11 mph 1013.2mb 55f
1:00am 7 9 mph 1013.2mb 55f
12:40am 7 8 mph 1013.2mb 57f
12:30am 6 10 mph 1013.5mb 57f
12:20am 6 11 mph 1014.2mb 57f
12:10am 7 11 mph 1014.6mb 56f
12:00am 7 13 mph 1014.6mb 58f
Sat 05/28 11:50pm 5 8 mph 1013.9mb 58f
11:40pm 6 13 mph 1013.9mb 57f
11:30pm 6 10 mph 1014.2mb 57f
11:20pm 5 11 mph 1014.2mb 58f
11:10pm 8 9 mph 1014.2mb 62f
11:00pm 7 8 mph 1014.2mb 62f
10:50pm  -  2 mph 1013.9mb 61f
10:40pm 1 2 mph 1014.2mb 59f
10:30pm  -  3 mph 1014.6mb 60f
10:20pm 2 23 mph 1014.6mb 58f
10:10pm 5 6 mph 1014.6mb 58f
10:00pm  -  5 mph 1013.9mb 59f
9:50pm 1 6 mph 1013.9mb 58f
9:40pm 2 7 mph 1013.2mb 59f
9:30pm 6 10 mph 1013.5mb 60f
9:20pm 7 8 mph 1013.5mb 63f
9:10pm 8 23 mph 1013.2mb 61f
9:00pm 3 8 mph 1012.2mb 58f
8:50pm 5 8 mph 1012.2mb 58f
8:40pm 6 9 mph 1011.5mb 58f
8:30pm 5 9 mph 1011.9mb 58f
8:20pm 7 11 mph 1011.9mb 58f
8:10pm 7 10 mph 1012.2mb 58f
8:00pm 7 11 mph 1012.2mb 58f
7:50pm 6 11 mph 1012.2mb 58f
7:40pm 7 13 mph 1011.9mb 58f
7:30pm 8 13 mph 1011.9mb 59f
7:20pm 8 13 mph 1012.2mb 59f
7:10pm 6 10 mph 1012.2mb 59f
7:00pm 7 10 mph 1012.2mb 59f
6:50pm 7 9 mph 1012.2mb 60f
6:40pm 6 13 mph 1012.2mb 61f
6:30pm 8 13 mph 1012.2mb 61f
6:20pm 7 13 mph 1012.2mb 61f
6:10pm 8 11 mph 1011.9mb 61f
6:00pm 7 14 mph 1011.9mb 61f
5:50pm 9 14 mph 1011.9mb 62f
5:40pm 8 15 mph 1011.5mb 62f
5:30pm 9 14 mph 1011.9mb 62f
5:20pm 9 15 mph 1011.9mb 62f
5:10pm 9 15 mph 1011.5mb 63f
5:00pm 10 16 mph 1011.5mb 63f
4:50pm 8 15 mph 1011.9mb 63f
4:40pm 9 13 mph 1011.5mb 64f
4:30pm 8 15 mph 1011.9mb 64f
4:20pm 9 14 mph 1011.9mb 63f
4:10pm 8 14 mph 1011.9mb 65f
4:00pm 8 14 mph 1011.9mb 64f
3:50pm 8 13 mph 1011.9mb 64f
3:40pm 9 14 mph 1011.9mb 65f
3:30pm 7 11 mph 1011.9mb 65f
3:20pm 8 11 mph 1011.9mb 65f
3:10pm 8 13 mph 1011.9mb 64f
3:00pm 8 11 mph 1011.9mb 64f
2:50pm 5 9 mph 1011.9mb 63f
2:40pm 7 11 mph 1012.2mb 63f
2:30pm 6 13 mph 1012.2mb 63f
2:20pm 8 10 mph 1012.2mb 60f
2:10pm 7 11 mph 1012.5mb 62f
2:00pm 8 10 mph 1012.5mb 62f
1:50pm 6 13 mph 1012.5mb 61f
1:40pm 8 14 mph 1012.5mb 62f
1:30pm 8 11 mph 1012.5mb 62f
1:20pm 6 13 mph 1012.5mb 62f
1:10pm 8 11 mph 1012.5mb 62f
1:00pm 8 13 mph 1012.5mb 62f
12:50pm 8 14 mph 1012.5mb 61f
12:40pm 7 13 mph 1012.5mb 62f
12:30pm 9 11 mph 1012.5mb 62f
12:20pm 9 11 mph 1012.5mb 62f
12:10pm 9 11 mph 1012.5mb 61f
12:00pm 9 11 mph 1012.5mb 62f
11:50am 9 11 mph 1012.2mb 62f
11:40am 8 11 mph 1012.2mb 62f
11:30am 7 10 mph 1012.2mb 63f
11:20am 7 11 mph 1012.2mb 62f
11:10am 7 11 mph 1011.9mb 61f
11:00am 8 11 mph 1012.2mb 60f
10:50am 8 13 mph 1012.2mb 61f
10:40am 7 11 mph 1011.9mb 62f
10:30am 8 11 mph 1011.9mb 61f
10:20am 9 11 mph 1011.9mb 61f
10:10am 8 13 mph 1011.5mb 61f
10:00am 9 13 mph 1011.5mb 60f
9:50am 8 13 mph 1011.9mb 61f
9:40am 9 14 mph 1011.5mb 61f
9:30am 9 14 mph 1011.5mb 60f
9:20am 7 10 mph 1011.5mb 59f
9:10am 8 10 mph 1011.5mb 61f
9:00am 8 10 mph 1011.5mb 61f
8:50am 8 10 mph 1011.5mb 58f
8:40am 6 10 mph 1011.5mb 58f
8:30am 7 9 mph 1011.9mb 59f
8:20am 6 9 mph 1011.5mb 60f
8:10am 6 8 mph 1011.5mb 59f
8:00am 5 7 mph 1011.5mb 58f
7:50am 3 6 mph 1011.2mb 59f
7:40am 2 6 mph 1011.2mb 58f
7:30am 3 6 mph 1011.2mb 57f
7:20am 3 6 mph 1011.2mb 57f
7:10am 3 6 mph 1011.2mb 57f
7:00am 2 6 mph 1011.2mb 57f
6:50am 3 5 mph 1011.2mb 57f